Terminal Aerodrome Forecast
Issued by NWS Greer, SC

Home | Current Version | Previous Version | Text Only | Print | Product List | Glossary On
Versions: 1 2 3 4 5 6 7 8 9 10 11 12 13 14 15 16 17 18 19 20 21 22 23 24 25 26 27 28 29 30 31 32 33 34 35
000
FTUS42 KGSP 221400 AAA
TAFCLT
TAF AMD
KCLT 221437Z 2215/2312 34014G21KT P6SM SKC
     FM221800 35016G24KT P6SM FEW250
     FM230000 34005KT P6SM FEW250=

USA.gov is the U.S. government's official web portal to all federal, state and local government web resources and services.